Theta_e
291 288 287 286 288 289 289 287 286 284 286 284 282 280 281 281 281 282 283 286 285 288 287 287 286 286 289 291 293 294 290 290 290 292 292 292 292 292 292 292 293 293 295 298 296 297 297 297 297 299 302 306 309 312 314 315 315 317 318 318 319 322 324 327 328 329 329 327 328 329 329 329 330 330 331 331 333 334 335 335 333 331 330 328 325 323
291 287 286 287 287 289 287 284 285 285 283 285 283 284 282 283 284 285 288 286 285 288 285 281 284 287 288 290 291 291 289 290 291 291 291 292 292 292 292 292 293 294 294 294 296 296 294 295 296 296 296 299 302 305 310 312 314 316 317 317 318 320 321 324 327 328 328 329 329 329 329 330 330 328 328 329 331 332 333 333 332 331 330 329 326 323
287 287 288 287 285 284 283 284 283 285 283 281 284 281 283 282 281 284 285 286 285 288 284 282 286 289 290 291 292 291 292 292 291 291 293 292 293 292 292 292 292 292 293 293 293 292 292 293 293 294 296 296 300 301 306 310 312 313 315 317 318 318 319 322 325 327 327 328 329 329 327 328 326 326 329 331 329 329 330 333 334 334 333 331 328 326
285 285 288 285 285 287 283 284 285 283 282 282 281 283 282 282 285 285 286 286 285 286 287 285 285 289 289 287 288 289 289 290 289 289 290 290 292 293 294 293 292 292 293 293 293 293 292 291 292 292 293 295 296 298 301 305 308 311 313 315 317 317 318 320 322 322 325 326 324 322 321 322 326 323 318 322 322 327 329 329 330 332 333 332 330 328
285 287 286 285 286 289 286 284 286 285 285 283 283 281 282 284 283 283 285 284 282 285 283 284 285 286 281 283 283 285 283 283 284 284 285 286 289 291 291 291 292 292 293 293 294 293 293 293 294 294 293 293 296 297 299 302 306 309 311 313 315 316 317 318 319 320 320 320 320 315 314 314 315 316 318 320 322 324 324 327 328 329 331 332 332 331
287 286 284 286 286 285 286 284 284 286 283 285 283 283 283 283 285 283 284 284 279 284 282 282 283 278 279 282 282 283 283 287 285 286 288 287 286 285 286 288 289 290 292 292 294 294 292 292 292 292 292 293 294 296 298 301 304 308 310 311 313 314 315 317 317 319 319 321 320 317 317 317 317 317 316 318 320 321 321 324 328 328 328 330 331 332
284 286 285 286 286 285 286 285 284 286 282 284 286 284 282 284 284 284 284 283 280 281 284 280 282 276 280 283 284 282 282 286 288 286 287 286 286 287 288 289 289 289 289 289 289 290 291 291 291 292 293 294 294 295 296 297 301 304 307 309 311 314 314 314 315 316 318 319 320 319 320 321 319 319 319 320 322 324 324 324 324 326 326 328 328 327
285 285 284 284 285 285 285 283 285 286 284 284 283 282 283 285 285 284 283 283 281 280 285 279 278 278 280 284 283 281 282 286 286 287 286 288 288 290 291 291 292 292 289 287 288 288 289 290 291 294 295 294 296 296 295 296 298 302 305 307 309 311 312 313 314 315 318 319 319 319 319 320 320 319 320 319 319 317 316 321 323 323 323 324 327 328
285 285 284 285 284 282 285 284 284 286 285 283 283 283 284 285 282 281 282 280 280 282 282 278 283 281 277 282 282 281 286 284 286 285 286 288 290 290 291 292 292 292 291 287 288 291 293 295 295 294 295 295 294 295 296 297 298 300 301 304 305 308 309 309 312 314 315 318 319 319 318 317 318 319 318 311 310 315 314 316 319 320 321 321 322 323
287 286 287 288 287 284 283 284 283 286 287 285 282 282 281 281 281 281 279 282 279 277 273 280 280 277 278 279 282 281 285 285 286 285 285 287 288 289 290 291 291 292 292 291 289 289 292 294 294 293 293 295 295 294 295 295 297 299 301 303 305 305 307 307 309 312 313 314 315 316 316 316 317 315 311 308 309 309 308 312 314 316 318 319 319 319
287 288 288 286 286 284 284 284 283 284 285 285 283 287 283 280 279 278 277 277 276 273 275 277 277 279 277 281 282 285 286 284 283 285 287 288 288 289 289 289 290 290 291 292 292 292 292 291 291 291 295 294 295 294 295 296 297 298 301 302 305 303 302 304 308 309 310 311 313 315 315 315 315 313 312 309 308 305 302 306 309 311 314 316 317 317
287 287 288 286 285 284 285 286 285 283 283 284 284 281 285 282 278 277 271 275 273 268 270 276 277 278 276 276 282 282 283 282 285 289 289 290 290 289 289 289 289 289 290 290 291 294 293 296 295 295 295 294 294 295 296 295 296 297 298 300 301 299 300 301 303 305 307 308 309 311 312 312 313 312 311 311 312 310 308 307 308 308 308 310 312 314
285 286 285 288 287 287 286 287 285 287 282 283 283 286 279 272 269 274 268 274 272 269 279 276 277 278 279 281 284 283 284 284 283 286 288 288 287 288 289 289 288 288 289 291 292 293 295 295 295 296 295 295 295 294 293 294 295 295 296 298 301 301 298 299 299 303 304 305 307 308 309 310 310 309 310 310 310 310 310 309 308 306 306 307 307 309
283 282 286 288 289 288 288 286 283 284 283 283 286 281 277 271 269 266 261 261 266 272 275 278 277 277 279 282 286 288 290 287 284 284 285 285 286 286 287 287 287 288 288 290 292 293 294 294 295 294 294 293 294 294 294 294 294 295 296 296 299 298 296 296 299 300 301 303 304 304 306 307 307 307 308 309 309 309 309 308 308 308 308 307 306 308
277 279 284 288 286 288 288 287 290 287 285 285 283 286 283 272 268 267 265 273 272 271 272 274 274 273 277 283 285 284 285 284 283 284 284 283 283 284 284 284 285 288 291 290 293 294 295 295 294 296 295 295 294 293 293 293 293 294 295 295 297 298 297 296 297 298 299 301 301 301 302 303 304 306 306 307 307 307 307 306 306 307 307 307 307 307
283 280 283 286 286 288 289 288 286 286 286 283 280 282 280 281 277 269 266 266 264 269 270 274 275 277 281 284 285 284 283 285 283 284 284 286 284 283 288 291 291 292 293 293 294 295 295 294 294 296 296 296 295 294 294 293 293 294 295 294 294 296 295 295 295 296 298 299 299 298 300 301 302 302 303 303 303 304 305 306 305 306 305 306 307 306
280 281 284 284 285 287 288 286 288 288 285 285 283 279 281 281 279 270 267 270 270 268 271 269 277 281 281 284 285 279 284 288 285 286 287 289 285 286 290 291 291 292 292 293 294 294 294 294 293 294 294 295 295 294 294 294 293 294 294 294 295 295 294 294 294 296 296 297 297 299 298 299 299 300 301 303 303 303 303 303 303 304 305 304 303 304
283 281 284 285 287 288 287 286 286 284 286 284 279 283 282 282 281 278 273 265 262 269 271 271 276 277 275 280 282 282 285 286 284 284 285 286 286 290 292 292 293 293 293 293 292 292 292 292 293 294 294 293 294 294 294 294 293 293 294 294 296 295 296 295 294 295 295 296 296 297 297 297 298 300 300 301 301 302 301 301 301 301 301 302 303 302
285 279 284 284 286 288 286 288 289 287 286 284 282 285 285 279 277 277 272 268 267 266 265 268 272 273 277 280 280 284 284 285 285 284 284 286 288 291 292 293 292 292 292 293 293 294 294 293 293 293 294 293 293 293 292 293 294 294 294 294 294 295 295 295 295 294 294 294 296 297 297 297 298 298 299 299 299 299 300 300 301 300 301 301 300 300
285 280 280 285 285 287 287 287 284 285 286 284 285 283 284 280 276 274 276 271 273 267 265 269 268 277 278 279 280 283 282 286 284 283 284 286 290 292 292 292 292 292 292 292 293 293 292 292 291 291 291 292 292 293 293 293 294 294 294 294 294 294 294 294 294 294 295 295 295 295 295 295 296 297 298 298 298 299 299 299 299 300 299 300 300 299
284 282 276 284 286 286 284 285 285 286 283 281 282 281 284 279 282 280 277 275 275 266 265 264 268 271 277 279 282 286 283 282 283 286 285 288 290 292 293 293 292 291 292 292 291 292 291 291 291 291 290 290 290 290 292 292 292 293 293 293 293 294 294 294 294 293 294 294 294 293 294 295 295 296 296 296 296 297 298 298 298 298 299 296 298 297
284 282 280 282 282 283 283 284 284 285 287 286 285 283 286 280 278 276 278 276 267 272 268 263 274 272 280 280 285 285 282 280 282 286 288 289 290 291 291 291 290 292 291 290 290 289 290 290 290 289 290 290 290 291 291 291 292 292 292 292 292 293 293 293 294 293 293 293 293 293 294 293 293 293 293 293 294 294 295 295 296 296 294 295 297 295
286 282 283 278 282 285 285 286 284 283 285 285 285 285 286 283 281 274 274 275 271 274 269 267 269 274 281 280 280 282 281 280 281 283 289 289 290 289 290 290 290 289 291 291 290 289 289 289 289 290 290 290 290 290 290 290 291 291 291 291 291 292 292 292 292 292 292 292 292 292 291 291 291 290 290 290 292 292 293 293 292 292 293 294 294 293
290 282 279 279 280 281 284 285 284 283 286 287 285 282 283 284 284 281 274 275 278 271 272 268 268 277 280 280 280 281 281 280 280 281 289 289 289 288 289 291 290 292 289 287 288 288 289 288 289 291 291 291 291 290 290 290 290 290 290 290 291 291 290 291 291 290 291 291 291 290 290 291 291 290 291 291 292 291 291 291 291 291 291 292 292 293
285 283 284 274 274 278 279 285 285 284 285 280 282 282 284 280 279 277 275 273 272 276 276 276 272 275 281 281 282 282 283 283 284 282 285 290 288 289 289 289 287 287 288 289 289 289 289 290 290 290 290 290 290 290 290 289 289 289 289 290 290 290 290 290 289 290 290 290 291 291 291 291 291 291 291 291 291 291 291 291 291 290 291 291 291 292
286 283 283 278 276 274 273 274 278 281 284 282 279 280 284 285 280 280 278 275 275 273 277 272 276 279 278 282 284 284 284 286 285 285 286 287 289 290 289 288 289 287 288 288 289 289 289 288 288 289 289 289 288 289 289 289 289 289 289 289 289 289 289 289 289 289 290 290 291 291 291 291 291 291 290 290 290 290 290 290 290 290 290 290 291 291
282 283 285 285 283 281 283 284 285 285 282 282 283 283 283 285 283 283 279 275 279 276 276 278 281 282 282 283 283 285 284 287 288 286 289 290 287 286 285 287 287 287 287 287 287 287 287 289 288 287 288 287 288 288 288 287 288 288 289 289 289 288 288 288 288 289 289 289 290 290 290 290 290 290 290 290 290 290 290 290 290 289 290 290 289 290
281 283 284 285 285 286 285 284 283 288 285 286 284 282 284 283 282 283 282 282 282 277 274 280 282 281 283 281 282 284 284 285 289 290 290 287 287 288 288 286 288 286 287 286 287 287 288 287 287 287 287 287 287 287 287 287 287 288 288 288 288 288 288 288 288 288 289 289 289 289 289 289 289 289 289 289 289 289 289 289 290 290 290 289 289 289
284 284 285 284 284 284 280 282 283 286 286 285 285 284 282 283 282 282 284 286 282 282 281 285 282 282 283 284 286 286 288 289 290 291 291 289 287 286 286 287 287 287 287 287 287 286 286 287 287 287 287 286 286 286 287 287 287 288 288 288 288 288 288 287 287 288 288 288 289 289 289 289 289 289 288 288 289 289 289 289 289 289 288 288 289 289
287 281 284 284 284 284 281 281 282 285 283 283 284 284 285 283 283 285 285 287 284 284 286 285 281 284 286 286 287 289 289 291 290 287 286 287 288 287 287 287 287 286 286 287 287 287 287 287 287 287 287 287 287 287 287 287 287 287 287 287 287 287 287 286 287 287 287 288 288 288 288 288 288 288 288 288 288 288 288 288 288 288 288 288 288 288
287 281 286 282 281 282 282 281 282 283 283 282 282 284 284 285 285 285 286 286 286 285 286 283 280 282 284 285 287 288 288 287 285 287 289 288 286 287 287 287 287 287 287 287 286 286 286 285 286 286 286 286 286 286 286 286 286 287 287 287 287 287 286 286 286 287 287 288 288 287 287 287 287 287 287 288 287 287 287 288 288 287 287 288 288 288
286 280 281 281 279 278 279 281 280 280 281 280 280 282 283 283 282 284 284 287 284 283 285 282 282 284 287 286 288 287 286 287 288 288 288 288 287 287 288 287 287 287 287 287 286 285 285 285 286 286 286 286 286 286 286 286 286 286 286 286 286 286 286 286 286 286 287 287 287 287 287 287 287 287 287 287 287 287 287 286 286 287 287 287 287 288
284 282 280 278 278 277 279 278 278 278 277 275 278 282 284 285 286 286 286 285 286 288 284 282 284 290 287 289 289 287 286 288 288 288 288 289 288 287 288 288 288 287 287 286 286 286 286 286 286 286 286 286 286 286 286 285 286 286 286 285 285 285 285 286 286 286 287 287 286 287 287 286 286 286 286 287 286 286 286 285 286 286 286 287 287 286
283 284 279 281 277 272 275 278 277 275 272 276 287 288 287 285 285 283 284 286 287 287 287 289 290 287 285 286 288 287 287 288 290 291 292 293 290 286 286 287 287 287 286 286 286 286 286 285 285 285 286 285 285 285 285 285 285 285 285 284 284 285 285 285 286 286 286 286 286 286 286 286 286 286 286 286 286 286 286 286 286 286 286 286 286 287
283 283 279 277 277 275 276 276 275 272 275 285 282 286 288 289 288 286 287 288 288 288 289 288 288 284 286 288 290 291 290 290 287 288 288 286 288 289 287 286 286 286 286 285 285 285 285 285 285 285 286 286 285 285 285 286 285 284 284 284 285 285 285 285 285 286 286 285 285 286 285 285 285 285 285 285 285 285 285 285 286 286 286 286 286 286
283 283 279 278 278 278 276 275 272 274 280 281 283 283 285 286 285 285 285 287 286 286 288 288 290 291 288 287 287 288 287 285 285 285 285 285 286 289 288 287 286 286 286 286 286 286 286 286 286 286 286 284 284 284 285 285 284 284 284 284 284 284 284 284 284 285 285 285 285 285 285 284 284 284 284 284 284 284 284 285 285 285 286 285 286 286
287 286 284 281 282 278 276 278 277 281 283 284 284 283 285 283 283 284 281 285 289 289 289 289 291 291 287 287 286 283 285 286 287 287 287 285 285 286 288 288 287 287 287 286 286 286 285 285 285 285 284 284 284 284 285 284 283 283 283 283 284 283 283 283 284 284 284 285 285 285 284 284 284 283 283 283 283 283 283 284 284 285 284 284 285 285
290 287 286 285 282 283 277 274 275 276 277 282 286 285 288 287 289 289 287 284 288 289 290 290 290 290 289 285 284 285 286 289 286 287 287 286 285 286 285 286 285 286 286 285 284 285 284 284 284 283 284 284 284 284 283 283 283 283 283 283 283 283 283 283 283 284 284 284 284 284 284 283 283 282 282 282 282 282 283 283 284 284 284 283 283 284
288 288 286 286 284 283 281 279 278 276 280 286 284 286 287 288 289 287 283 282 288 287 288 290 289 289 288 287 284 286 288 287 287 288 287 286 285 285 286 285 285 285 285 285 286 286 284 284 284 283 283 284 284 283 283 282 282 283 283 283 283 283 283 283 283 284 283 284 284 283 283 283 282 281 281 281 281 281 281 282 282 283 283 283 283 283
287 286 286 284 282 284 283 280 278 281 281 284 281 281 284 286 291 288 278 281 290 285 288 288 289 289 287 288 286 288 289 286 289 288 287 286 286 284 285 285 285 285 284 283 283 283 283 283 284 284 284 284 283 282 282 282 283 282 283 283 282 282 282 282 283 283 283 283 283 283 282 282 281 281 280 280 281 281 281 281 281 281 282 282 282 282
285 285 286 283 284 284 285 282 283 284 285 284 284 283 284 290 291 283 279 287 287 285 285 289 289 290 289 287 288 287 289 287 286 287 286 284 284 284 283 283 284 284 284 284 283 283 283 283 283 283 283 282 282 282 282 282 282 282 282 281 282 281 282 282 283 283 283 283 282 282 281 281 280 280 280 280 280 280 280 281 281 281 280 281 281 281
285 286 285 286 284 283 284 282 283 285 286 284 283 286 287 289 281 282 287 283 283 283 283 287 286 285 287 287 288 286 284 283 285 285 285 285 285 283 283 283 283 283 282 282 282 282 282 282 282 282 282 281 281 281 280 280 280 281 281 280 280 281 282 282 282 282 281 281 281 280 280 280 280 280 280 280 280 279 280 280 280 280 280 280 280 279
285 283 281 282 285 285 284 282 281 278 287 286 287 286 286 284 284 285 284 282 282 282 283 283 285 284 287 284 283 283 283 284 285 285 284 284 284 284 284 283 283 283 282 282 283 281 281 281 281 281 280 281 280 280 279 277 277 278 278 278 280 281 281 280 280 280 279 279 279 279 279 279 279 279 279 279 279 278 278 279 279 279 279 279 279 279
288 284 283 284 287 281 282 279 281 287 286 289 291 286 286 286 284 285 287 285 285 284 284 284 284 285 287 286 284 283 284 284 283 284 283 283 283 282 282 282 281 281 281 280 280 279 278 279 279 279 279 279 278 278 278 277 276 277 276 277 279 278 278 277 277 277 277 277 277 277 278 278 278 278 279 279 279 278 278 279 279 279 280 279 279 279
288 286 287 283 286 285 283 286 288 286 287 289 287 287 288 287 283 286 286 287 286 285 284 286 286 285 286 285 284 285 284 285 285 285 284 283 282 282 282 281 281 281 280 280 279 277 276 276 275 276 276 277 277 278 277 276 275 275 274 276 276 275 275 274 274 274 274 275 275 276 277 277 278 278 278 278 278 278 278 278 279 279 279 279 279 279
285 286 286 287 286 286 285 284 286 284 285 287 284 284 283 284 284 285 287 287 287 287 287 287 286 287 286 286 285 285 286 285 285 285 284 284 283 282 281 280 279 278 277 276 276 275 274 273 272 273 274 275 276 277 276 275 274 272 273 274 273 273 272 272 272 273 273 274 275 275 276 276 277 277 278 278 278 278 278 278 278 278 278 279 278 279
284 284 286 285 285 287 282 284 284 287 285 285 285 283 282 283 285 285 287 287 287 285 286 286 288 287 287 287 286 285 285 285 284 284 283 283 282 282 281 279 278 276 275 274 274 273 272 271 271 272 272 271 274 274 273 273 272 272 272 271 271 271 271 271 271 272 272 273 274 274 275 275 276 277 277 278 278 278 278 278 278 278 278 278 278 278
283 284 285 283 284 285 284 284 282 279 278 279 281 283 283 283 283 284 285 285 285 285 286 286 286 285 285 285 286 285 284 284 283 282 281 281 281 280 278 277 275 274 273 272 271 270 269 270 270 269 269 270 271 271 270 270 269 269 268 269 269 269 269 270 271 271 271 272 272 273 274 275 275 276 276 277 277 277 277 278 278 278 278 278 278 278
283 286 281 283 284 281 280 280 279 280 281 281 282 282 284 284 283 283 283 284 285 285 284 283 284 285 285 285 285 284 282 282 282 281 280 279 278 276 275 274 273 272 272 270 270 269 269 268 268 268 268 268 269 267 266 266 266 267 267 268 268 268 268 269 270 269 269 270 271 271 273 274 274 275 275 275 276 277 277 277 277 278 278 279 280 279
282 281 280 282 275 276 282 282 280 281 279 284 284 285 283 283 283 283 283 283 284 283 283 281 279 280 282 283 284 283 281 279 279 279 278 276 275 273 272 271 271 270 269 269 269 268 267 266 265 265 265 265 265 264 264 264 265 266 267 267 267 267 266 266 266 266 266 268 268 269 270 271 272 272 273 274 275 276 277 278 280 280 279 279 280 282
284 283 282 281 282 281 285 284 285 289 288 287 289 285 282 283 284 283 283 283 283 283 282 280 278 278 278 276 278 280 279 277 275 275 273 272 271 271 270 269 268 268 268 268 266 265 264 264 264 263 262 263 263 263 263 263 264 265 266 266 266 265 264 264 264 265 265 266 267 268 269 270 271 272 274 274 275 275 275 275 277 280 281 281 280 281
Wind_Speed
1 6 7 9 10 10 6 3 4 3 7 6 4 4 3 5 1 3 2 1 0 1 5 5 6 6 11 11 12 10 2 5 8 11 10 9 8 8 8 9 9 10 14 1 4 5 6 6 7 6 7 8 9 10 11 11 12 12 12 10 13 10 9 9 9 8 9 9 8 8 9 10 7 8 9 9 9 9 9 10 10 11 12 13 13 10
3 5 8 5 5 7 7 9 9 9 5 7 6 5 2 2 3 0 1 2 2 2 2 2 3 10 12 11 12 7 1 9 11 11 11 12 9 8 9 10 10 10 4 4 6 5 3 6 5 6 6 6 9 11 10 12 13 12 10 12 11 7 9 11 11 9 9 9 9 8 9 8 7 6 7 8 8 9 9 8 6 6 6 8 11 12
3 9 4 5 4 10 6 5 4 7 6 4 5 4 2 4 3 3 1 1 3 1 5 2 3 10 11 11 11 8 10 8 6 8 7 5 8 7 8 9 9 7 10 4 8 5 7 6 6 6 6 7 9 6 10 11 9 10 10 11 9 8 9 9 10 9 10 8 8 8 5 6 3 3 5 6 5 4 5 8 9 7 6 7 8 10
3 5 4 5 7 10 4 4 9 8 6 6 5 4 5 2 4 3 3 1 3 2 2 1 5 11 8 7 11 12 7 7 6 7 10 7 10 12 10 4 6 9 10 10 7 8 7 6 6 5 6 7 6 8 7 8 10 9 9 9 8 8 7 7 8 9 7 6 4 3 3 3 4 4 2 2 2 4 6 7 5 9 10 9 8 8
6 1 0 8 5 10 7 2 7 6 2 2 3 4 4 2 3 2 2 0 0 1 2 1 4 8 4 5 6 1 4 5 6 5 6 8 8 9 9 9 9 12 10 11 10 8 7 7 6 6 5 3 6 7 8 7 8 7 10 8 8 7 8 7 8 9 6 6 5 4 3 2 2 1 1 2 4 6 6 6 8 9 7 8 7 7
1 1 4 7 4 4 7 3 4 8 1 0 4 6 5 5 7 1 1 3 3 1 5 3 3 3 4 7 9 9 8 8 4 5 7 5 6 5 7 9 7 7 7 10 11 7 4 7 8 7 6 6 6 6 6 6 7 7 7 7 7 7 7 8 9 9 8 8 8 6 6 6 6 7 6 8 10 8 8 10 8 8 8 9 10 10
2 1 2 7 7 5 6 6 5 5 6 3 4 5 3 7 7 7 4 3 1 1 2 1 3 5 6 6 4 5 8 12 9 3 7 7 6 4 5 7 8 8 8 6 7 7 7 6 6 6 4 4 5 6 5 4 6 6 6 7 8 8 7 8 8 9 8 8 8 10 10 9 9 9 7 7 6 7 7 6 6 7 7 8 8 6
2 1 5 5 5 6 5 4 4 8 8 5 1 6 8 8 8 6 6 2 1 1 1 5 3 1 6 9 4 5 6 9 8 8 7 6 6 5 5 5 6 7 6 6 6 6 5 5 4 5 5 4 4 5 4 4 3 6 6 7 8 7 7 7 8 9 9 9 9 9 9 8 8 9 10 8 8 5 4 7 9 7 7 7 8 10
4 4 4 5 2 4 8 4 4 7 7 2 1 4 6 7 6 7 6 5 0 0 5 3 2 0 4 8 4 4 4 5 8 6 7 6 5 5 6 6 6 6 5 3 3 4 4 4 4 3 4 5 4 3 3 1 2 4 5 6 6 7 6 6 8 9 8 8 9 9 7 8 8 8 7 5 5 7 6 8 7 7 7 7 7 7
2 4 7 6 8 7 2 1 1 6 4 1 6 7 7 8 7 5 5 5 1 2 5 3 3 3 7 7 6 3 1 8 8 6 5 4 4 5 6 8 8 7 6 5 3 4 4 4 4 4 3 4 4 3 2 2 3 4 4 5 6 5 5 5 7 7 7 7 7 8 8 10 8 7 5 4 5 6 5 7 7 7 7 6 6 6
1 3 3 4 4 3 5 3 1 2 2 10 4 8 7 9 5 4 7 3 3 1 6 2 3 1 3 5 6 2 3 2 2 2 2 3 4 4 3 4 6 7 6 6 6 4 3 2 2 1 5 2 4 4 5 5 5 4 5 5 5 4 3 5 6 7 7 7 7 8 9 10 10 9 7 6 6 5 4 6 7 6 7 6 6 6
2 1 1 0 3 3 3 5 4 3 5 6 3 5 7 5 7 5 5 5 2 5 3 1 1 0 6 5 4 8 3 5 3 3 0 3 4 5 5 6 6 6 5 5 4 5 4 4 4 3 6 6 5 6 7 6 5 5 4 5 6 3 2 3 4 5 6 6 7 6 8 9 9 8 7 8 9 8 8 7 7 6 5 5 5 5
2 3 1 3 3 7 4 10 4 0 3 4 7 8 8 1 4 2 2 2 5 5 1 2 2 1 8 10 3 4 6 6 8 7 4 4 6 6 6 7 6 5 4 4 4 3 5 6 5 7 6 6 7 6 5 5 5 5 5 4 6 3 2 1 1 4 5 5 7 7 7 8 6 7 7 8 8 6 7 7 7 6 6 5 5 6
2 1 1 1 2 4 5 12 2 1 1 4 9 8 7 2 2 3 3 1 5 6 5 1 1 3 4 9 12 15 13 6 6 10 7 5 6 6 7 7 6 5 4 2 2 4 5 5 4 4 5 5 5 6 6 6 6 5 5 5 4 3 2 0 1 3 4 5 5 5 5 6 5 7 6 7 6 7 6 5 7 7 7 7 8 8
5 3 6 7 2 3 1 3 11 8 10 7 1 7 8 7 6 4 4 5 5 5 2 4 1 6 4 2 1 5 5 3 3 5 5 5 6 6 7 6 3 3 4 3 4 5 5 5 5 6 6 6 6 6 6 5 5 4 5 4 3 2 2 1 2 2 4 4 4 4 4 5 4 6 6 6 6 6 6 6 6 6 6 7 7 8
7 3 2 2 2 2 7 1 3 6 6 0 3 5 5 7 6 2 3 3 1 1 1 1 5 4 4 1 6 5 5 5 3 5 3 4 1 4 2 4 4 3 4 3 5 6 6 6 6 7 7 6 6 6 6 6 5 6 4 3 2 1 1 2 2 3 4 4 4 4 5 6 5 5 4 5 5 6 6 6 6 7 7 7 6 6
3 4 1 6 3 1 1 0 1 1 8 4 5 4 4 2 11 7 2 1 1 4 5 2 7 6 8 8 4 2 0 2 0 0 1 2 1 1 5 4 4 3 3 3 4 5 5 5 6 5 5 4 4 5 6 5 4 5 5 5 5 3 2 2 2 4 4 4 4 5 4 4 5 5 6 7 7 7 6 5 6 6 7 6 6 7
10 3 2 3 1 1 0 0 2 6 1 9 2 7 2 2 6 5 3 2 4 3 6 2 8 5 2 5 4 2 2 6 3 2 4 0 1 6 5 5 4 4 1 1 1 2 4 4 5 5 4 5 6 5 6 6 5 5 5 6 6 5 7 4 2 3 3 4 4 4 4 4 5 5 6 6 7 6 5 6 5 5 6 8 7 6
7 3 1 1 0 4 1 0 5 2 3 2 2 4 6 2 2 2 5 1 1 2 4 3 3 5 6 6 2 2 6 6 6 3 3 4 6 7 6 5 2 0 1 3 4 6 6 7 7 7 7 6 7 7 6 6 6 7 7 7 7 8 6 5 4 3 3 2 3 3 4 4 4 5 6 6 6 5 6 7 6 7 7 6 6 6
1 5 1 1 2 1 2 2 9 3 3 2 2 4 0 3 2 4 6 3 5 4 2 6 3 6 7 7 6 5 10 10 7 4 5 7 10 8 7 7 5 4 3 3 5 5 5 5 6 6 7 8 8 8 8 7 7 10 8 8 8 7 7 7 7 6 6 5 3 4 4 4 4 5 6 6 5 6 6 7 6 7 7 8 6 6
3 1 4 1 2 2 3 4 9 11 10 2 2 3 1 1 2 4 1 3 4 5 5 2 4 5 7 7 7 10 4 3 6 8 6 8 8 8 9 8 6 5 4 4 4 5 5 6 6 7 6 6 6 6 6 7 8 6 6 8 8 9 9 9 7 7 7 6 6 4 5 5 5 6 6 6 5 6 6 6 6 6 7 4 7 6
3 2 7 2 3 5 5 1 2 5 5 8 11 11 12 9 5 4 6 3 2 3 4 5 9 6 10 3 8 7 6 5 5 6 10 8 8 8 6 5 5 5 3 3 3 3 4 4 5 4 5 3 5 8 9 8 8 9 9 7 7 7 9 8 9 7 6 5 5 6 6 6 5 5 5 5 5 6 6 6 6 6 5 6 8 5
5 3 9 5 6 5 1 0 1 1 0 2 2 6 6 2 6 4 6 6 3 0 4 3 1 9 6 4 5 6 4 5 4 4 8 8 8 7 5 3 2 2 1 1 2 2 3 3 3 4 5 7 9 8 8 8 9 8 8 8 8 9 9 8 7 6 6 6 6 5 4 4 4 4 4 4 4 5 6 6 6 5 6 7 7 6
4 5 5 2 1 2 3 2 1 1 1 1 3 2 5 9 7 6 3 6 8 2 1 1 2 8 4 1 5 5 5 5 4 5 7 8 5 5 3 2 1 3 2 2 2 3 3 3 3 6 9 10 9 9 9 8 8 9 8 7 6 9 9 9 8 7 6 5 5 4 4 4 5 5 5 6 5 6 6 6 6 5 5 6 6 7
6 4 10 3 3 2 3 1 1 2 1 4 4 5 3 3 6 3 5 1 3 9 9 8 7 7 3 3 3 1 2 2 3 6 5 8 5 4 4 1 1 1 2 4 4 4 5 7 8 7 7 7 6 7 8 9 8 8 7 4 7 8 7 8 7 8 8 7 8 8 8 9 9 9 10 9 8 9 8 7 6 6 6 6 7 7
3 4 9 9 11 9 7 6 9 11 12 3 0 4 6 9 8 5 4 2 5 3 7 5 7 6 6 4 3 1 2 1 1 4 4 3 5 6 4 2 1 2 3 3 4 6 6 5 5 6 6 6 6 6 7 8 7 6 7 6 7 8 9 9 8 8 8 9 10 10 11 10 10 10 10 9 9 9 9 8 7 7 6 5 7 7
3 1 7 9 13 14 14 12 1 9 6 5 8 11 9 6 7 4 6 5 10 4 7 8 8 1 3 3 3 4 3 7 9 5 8 8 5 4 2 1 1 2 2 3 3 3 4 5 5 5 5 5 5 6 6 5 5 6 6 7 8 7 8 8 8 8 8 9 9 9 10 10 10 9 9 9 9 8 8 8 8 7 8 6 6 7
3 4 7 8 11 11 6 2 5 10 11 11 10 10 10 10 10 10 10 13 7 11 7 9 11 8 11 4 6 7 5 4 7 10 9 5 5 6 4 2 3 3 2 3 4 4 4 3 3 2 2 3 3 3 3 3 3 4 4 6 7 7 8 8 7 7 7 7 8 8 8 8 8 8 8 8 8 8 8 8 8 8 7 6 7 7
6 8 7 6 10 7 2 4 6 6 8 8 11 10 11 12 11 13 15 13 10 11 16 16 8 9 9 8 11 12 12 12 14 15 11 6 4 3 4 6 5 4 4 4 4 4 4 4 3 1 0 1 1 2 2 3 3 3 1 3 5 7 8 6 6 6 6 6 7 7 6 7 7 6 7 7 7 8 8 8 8 8 8 7 7 7
4 5 6 6 10 8 3 3 3 8 3 4 9 12 14 14 16 17 17 16 13 14 17 7 10 18 10 10 12 13 11 11 6 2 4 5 6 6 6 7 7 7 6 6 6 5 4 4 4 3 2 0 0 1 1 1 2 2 3 6 6 7 5 5 5 5 5 5 5 5 5 6 6 6 6 6 7 7 7 7 8 7 8 8 7 7
5 5 7 4 5 7 5 1 2 4 6 6 4 7 12 15 17 19 18 18 14 14 12 1 3 11 6 7 7 5 5 2 2 6 10 7 4 7 9 8 8 8 7 6 5 5 4 3 3 3 2 0 0 1 3 4 1 2 7 8 7 7 6 5 4 4 4 5 5 5 5 5 6 6 6 6 6 6 7 7 7 7 7 7 7 8
3 3 2 4 6 5 1 7 4 4 2 1 3 6 10 13 13 14 16 13 10 11 12 6 8 15 7 9 6 6 5 7 10 9 7 7 8 8 9 9 9 8 7 6 5 4 4 4 4 5 7 7 5 3 1 2 6 8 8 6 7 6 5 5 4 5 5 5 5 5 5 5 6 6 5 5 5 6 6 5 5 5 6 6 6 6
5 6 5 4 6 6 3 1 6 5 3 3 7 12 20 19 17 13 9 2 9 15 12 11 17 19 5 14 13 8 6 9 10 7 7 8 7 9 11 11 10 9 8 8 8 7 7 7 6 4 2 1 3 4 5 5 7 8 6 5 5 4 4 4 4 4 4 4 4 5 5 5 6 6 6 7 6 6 4 5 4 5 5 5 5 5
4 7 5 3 7 2 2 4 4 6 9 13 12 16 16 16 17 11 8 14 12 10 11 16 15 4 7 8 11 10 12 11 14 14 10 12 12 9 6 8 10 9 8 6 6 6 4 3 1 1 2 3 3 5 6 6 6 5 5 4 4 4 4 4 5 5 6 6 6 7 7 8 7 9 9 8 7 8 7 7 7 7 5 5 5 6
8 6 5 3 4 2 1 2 5 8 12 8 2 7 16 16 13 17 17 18 17 14 12 10 7 4 11 12 14 14 13 8 1 2 4 2 5 10 12 11 10 9 9 7 5 3 3 3 2 3 4 6 6 6 7 8 6 6 6 5 6 5 6 6 5 7 7 7 7 8 8 9 9 10 10 9 8 8 8 8 9 9 8 7 7 8
8 8 4 1 4 5 3 3 5 9 5 2 2 1 1 5 6 7 11 11 7 7 11 15 16 16 8 8 5 2 3 3 3 4 1 1 4 9 11 10 9 8 9 7 7 5 4 3 4 4 4 3 5 5 6 6 5 6 5 5 4 5 5 5 6 7 7 8 8 8 8 8 9 9 8 9 9 9 9 9 8 10 10 8 8 6
11 6 5 5 4 8 6 9 8 4 6 2 3 3 10 10 9 12 12 15 18 15 15 17 20 15 5 6 4 3 4 4 2 0 1 1 3 3 8 9 9 8 8 6 5 5 3 3 4 3 2 2 2 3 4 3 4 3 4 5 5 5 5 5 7 8 8 8 9 9 9 8 9 8 9 9 9 9 9 9 10 8 6 9 8 7
7 11 6 9 4 6 6 1 1 3 11 11 9 0 1 5 13 13 10 8 5 11 16 16 17 14 8 5 6 7 5 6 6 8 4 2 3 8 5 6 5 6 6 5 3 4 5 3 3 3 3 3 3 3 2 2 3 2 2 3 4 5 5 6 8 7 8 9 10 10 9 9 8 9 9 9 9 10 10 8 7 7 6 8 11 12
2 3 1 9 2 6 4 6 7 8 11 10 5 6 7 6 10 6 4 11 8 10 13 16 17 13 11 11 8 7 8 9 12 9 9 7 5 5 9 6 6 5 5 5 5 5 4 3 3 3 3 4 7 6 4 3 3 4 6 6 7 7 8 9 9 10 11 11 10 9 9 8 9 9 9 10 10 8 10 10 9 9 7 7 7 10
5 4 5 6 5 6 8 9 11 4 7 2 3 2 4 6 11 10 4 10 9 8 11 13 13 14 11 13 14 13 13 12 15 8 9 9 8 5 7 9 8 6 6 5 4 3 3 3 6 7 8 8 7 5 7 7 7 7 8 9 8 9 10 10 10 10 9 9 9 8 8 7 8 8 8 10 10 9 8 8 9 9 8 9 7 9
6 3 7 12 12 12 13 7 3 6 3 3 4 3 4 9 11 9 16 11 1 5 4 11 17 16 14 13 13 13 10 4 2 11 11 9 9 6 5 4 5 5 6 6 5 4 6 6 6 6 5 5 6 7 7 7 7 8 7 8 8 9 9 9 9 10 10 10 9 9 9 8 6 10 10 7 8 10 9 7 8 10 9 10 9 8
6 6 3 8 10 12 11 13 13 5 4 5 0 9 8 8 7 14 5 0 4 4 2 5 3 4 9 13 12 4 3 3 8 11 11 9 9 7 6 6 6 6 4 5 7 7 5 6 6 6 6 6 8 7 7 6 7 6 7 7 8 8 8 9 9 9 10 10 10 10 9 9 10 8 8 9 8 10 12 9 7 8 9 8 9 11
11 9 8 10 6 3 4 8 8 13 4 8 12 2 3 6 6 5 3 1 1 3 4 2 5 5 9 6 5 9 9 9 11 11 10 10 10 9 7 7 7 6 6 5 7 7 6 6 6 6 5 6 6 6 5 6 6 6 6 7 8 8 9 9 9 10 9 9 10 9 10 9 9 10 8 9 9 9 12 11 9 9 9 9 10 11
5 8 3 5 5 8 10 10 8 2 4 7 13 9 5 7 2 5 7 3 1 2 4 5 1 6 6 12 12 9 11 12 8 10 9 8 7 7 7 6 6 6 6 6 6 7 6 6 5 6 5 5 5 5 6 7 7 6 7 8 8 9 9 8 8 8 9 8 8 9 9 9 9 9 8 9 9 9 11 12 11 11 10 8 8 10
5 8 5 8 4 6 4 4 3 4 9 10 3 1 5 3 2 6 3 5 7 4 3 4 8 6 6 12 11 14 11 10 13 10 12 9 8 7 8 6 6 6 6 6 7 6 5 6 6 6 6 6 7 6 7 6 6 6 6 7 8 10 10 10 9 9 9 9 9 9 9 10 10 9 9 9 8 10 11 12 11 11 11 10 9 10
3 2 0 4 4 1 1 1 1 1 3 4 2 0 0 1 2 4 6 5 4 4 9 9 9 10 11 13 15 6 12 12 13 9 9 9 8 7 7 7 7 6 6 6 5 6 4 5 4 5 5 6 6 6 6 6 6 6 8 8 8 9 9 10 10 10 10 10 10 11 10 12 13 11 10 10 8 8 9 10 11 11 12 11 11 10
2 1 2 4 2 7 7 4 4 6 4 6 4 1 0 1 3 5 6 5 6 7 5 5 13 13 14 11 14 14 11 10 11 9 8 8 8 7 7 7 6 6 6 5 5 4 4 4 5 5 5 6 6 6 7 6 6 6 8 9 9 9 10 10 10 11 10 10 11 12 10 11 11 12 12 10 9 9 9 9 9 10 12 11 11 11
4 2 2 2 4 9 6 4 3 2 2 3 2 2 3 3 0 0 1 3 7 6 6 8 9 11 8 9 11 15 12 9 12 10 8 7 7 7 6 6 5 5 4 4 3 3 2 3 3 3 3 4 5 6 7 7 7 7 8 8 8 9 9 10 10 11 12 12 11 10 10 10 13 13 11 11 9 10 10 10 9 10 12 13 12 11
3 6 5 6 7 1 4 1 1 2 2 3 4 6 6 6 6 3 4 7 9 13 10 7 3 7 8 11 10 13 12 7 8 10 10 7 7 6 5 6 5 5 4 2 2 3 3 3 3 3 4 4 5 5 6 5 6 6 7 7 8 9 9 11 12 12 12 11 10 10 10 10 10 10 11 12 12 10 10 11 11 12 14 14 12 11
4 7 2 4 2 3 10 7 6 3 4 6 9 11 7 4 6 8 7 8 9 12 11 13 8 6 6 7 10 13 14 10 7 8 9 8 7 7 6 5 4 4 3 1 3 2 4 4 3 2 2 3 3 3 4 5 6 6 7 7 7 9 10 12 13 12 11 10 10 11 11 11 11 11 11 11 12 12 14 15 19 16 15 17 19 22
8 7 7 7 8 9 9 7 12 11 7 6 10 8 9 8 10 12 12 12 8 8 13 16 13 8 8 6 3 10 12 12 9 8 9 7 6 5 5 5 4 3 3 1 2 2 2 2 2 0 0 2 2 3 5 6 7 7 7 7 9 10 10 10 10 10 10 10 10 12 12 12 12 11 11 11 13 12 14 17 17 21 25 25 27 30
Wind_Direction
136 133 170 186 190 183 182 158 156 175 140 118 80 96 169 170 281 273 277 271 17 112 244 237 267 274 274 269 272 278 234 277 279 274 264 261 262 255 253 242 241 239 243 257 239 256 254 247 237 231 216 219 212 213 206 206 211 211 210 201 217 208 196 198 200 198 198 201 203 214 217 221 213 212 210 214 213 212 214 210 210 200 198 194 195 194
66 133 221 198 185 175 154 128 110 75 55 131 134 146 204 181 180 195 140 354 326 149 295 36 313 271 262 272 267 275 8 260 244 253 263 259 248 253 249 257 247 248 305 294 285 268 277 264 254 238 226 204 209 221 205 211 213 211 208 210 218 186 195 203 202 201 203 203 206 202 211 212 204 198 204 213 211 212 207 205 214 208 205 201 197 192
142 199 219 203 129 93 89 90 70 118 110 52 138 152 113 257 241 293 305 325 333 118 263 4 328 275 268 260 266 255 246 243 227 217 239 251 268 255 246 249 271 289 274 284 266 278 267 262 258 240 233 227 223 219 205 218 210 207 208 215 208 197 194 202 202 200 210 205 208 209 208 196 209 220 204 204 186 193 215 207 197 207 207 194 199 195
180 281 242 143 140 110 55 77 98 74 67 113 97 104 197 243 141 248 271 339 7 92 318 310 324 284 283 279 261 263 247 270 271 259 260 246 255 257 258 268 276 276 276 275 267 270 279 283 281 267 238 232 232 234 224 210 210 208 212 211 201 196 192 193 199 206 207 198 190 190 180 187 188 197 211 215 213 198 207 224 225 219 211 205 204 204
181 254 338 138 146 136 126 105 120 115 139 335 133 134 136 158 237 149 180 200 317 59 63 334 292 298 327 328 325 328 333 310 288 322 272 259 248 271 293 286 243 253 261 270 278 267 272 287 273 269 276 260 220 223 219 205 206 204 209 201 189 183 185 186 184 189 174 154 152 127 69 68 72 27 161 193 229 219 215 220 211 220 208 206 213 202
241 331 146 112 111 96 117 139 195 130 98 353 229 174 191 177 138 248 39 114 22 331 5 53 339 315 305 293 247 286 343 324 294 331 289 305 303 304 284 273 288 266 251 251 259 270 278 270 294 302 300 290 263 245 229 213 211 201 198 183 181 179 180 185 182 178 172 179 169 153 158 175 190 201 188 200 210 209 208 215 220 218 214 221 219 211
194 8 126 159 146 135 143 170 211 151 166 122 254 158 147 143 128 128 132 78 70 151 353 355 163 265 327 314 290 327 326 298 305 256 291 313 315 311 290 293 295 290 286 277 277 277 278 287 305 301 294 292 280 267 261 247 214 201 188 180 179 179 182 179 177 173 172 180 186 190 197 203 204 213 220 220 222 220 223 222 224 221 214 212 219 232
91 84 81 80 102 125 131 198 228 147 128 214 248 126 115 117 133 162 114 110 174 258 267 49 97 185 307 289 274 305 299 289 305 311 333 334 333 332 326 310 308 305 283 273 279 286 270 275 265 277 298 298 288 294 308 277 238 189 186 173 177 179 176 178 170 174 179 186 189 193 204 207 213 214 226 206 219 223 219 215 225 224 223 219 221 224
124 157 156 134 96 130 185 205 191 149 135 225 215 149 142 142 143 121 96 104 130 354 273 341 348 329 258 267 310 5 344 322 298 312 318 326 337 339 340 344 342 336 324 264 286 332 340 332 312 298 325 329 333 354 343 315 230 184 168 165 161 169 168 173 172 174 188 190 187 195 199 213 221 223 229 205 215 214 214 225 224 222 224 219 224 228
333 161 202 150 143 192 230 321 166 153 112 249 130 98 96 84 71 92 98 83 347 76 268 200 11 186 277 276 327 334 271 276 273 294 291 290 304 315 333 342 347 351 360 0 282 280 310 331 329 316 297 355 0 335 4 40 87 115 127 135 148 163 165 163 169 175 183 187 179 193 203 215 223 218 228 187 204 212 202 223 226 225 226 224 225 226
208 334 181 97 184 173 129 39 110 36 124 133 137 84 45 40 31 33 59 80 64 348 253 255 316 145 305 268 232 132 213 210 285 298 280 301 322 325 324 327 345 347 344 348 339 336 314 281 300 311 68 352 9 15 47 50 52 80 116 135 139 160 140 155 168 172 180 186 188 199 204 212 219 216 214 210 227 192 221 227 229 224 227 228 229 225
28 12 72 294 67 114 103 79 30 91 102 123 112 130 82 6 12 29 348 31 124 264 261 282 306 331 174 289 292 235 272 215 189 160 255 321 316 320 336 346 348 348 339 331 3 14 15 55 58 91 61 42 25 36 37 40 41 53 73 105 110 76 98 128 148 172 182 184 200 209 207 215 222 216 212 222 229 215 219 220 228 224 232 234 238 238
57 123 222 25 217 122 132 91 359 10 351 86 95 95 113 221 36 281 8 247 211 197 252 352 151 28 241 235 229 282 251 252 218 212 224 268 295 320 338 345 334 325 339 3 14 43 52 60 45 45 33 39 41 43 36 35 52 58 70 88 116 100 36 78 114 181 195 191 208 209 214 224 222 220 221 231 237 225 226 222 229 213 223 227 232 231
273 287 64 236 65 230 153 125 138 139 275 116 141 145 113 125 104 217 272 271 312 286 267 295 257 264 251 281 248 241 250 217 217 227 238 245 260 293 311 325 331 333 332 331 8 64 67 67 67 68 68 52 36 26 22 24 40 39 61 55 86 56 25 19 139 209 205 224 232 227 230 236 226 234 228 236 236 238 228 217 225 216 216 221 225 226
131 284 246 151 209 160 188 167 173 153 159 202 51 147 173 139 154 202 193 196 212 197 277 272 87 232 129 238 213 215 242 262 253 254 259 257 258 269 287 288 301 345 9 8 63 67 75 68 75 79 74 74 66 57 45 38 30 38 50 52 67 21 358 27 257 241 242 256 263 255 248 249 232 240 242 241 240 245 235 229 229 232 224 220 224 216
202 198 285 315 268 151 168 249 114 100 48 4 158 79 96 213 131 131 206 143 173 154 22 242 217 190 183 261 269 252 293 280 280 268 253 276 312 298 37 48 30 22 33 34 71 67 50 47 51 58 59 56 63 59 54 49 44 63 61 79 115 156 276 282 245 229 226 245 245 237 243 245 245 255 261 267 254 247 237 243 225 238 229 232 237 233
36 237 355 307 49 85 163 164 355 132 169 220 102 196 205 112 99 101 54 6 90 43 251 164 314 284 297 312 282 7 333 261 326 30 213 233 322 87 93 78 71 52 52 55 67 67 59 44 43 53 59 59 70 69 70 81 87 100 110 100 84 39 359 304 265 268 259 267 279 272 261 265 262 254 250 252 258 252 250 241 243 238 246 246 235 241
153 196 357 55 122 344 284 122 102 40 142 100 177 220 170 141 126 128 184 351 61 176 263 102 221 283 35 266 332 354 185 259 281 251 223 215 139 116 121 109 105 94 55 346 4 45 71 70 59 49 59 55 53 58 60 55 62 81 82 81 79 72 42 13 327 263 250 262 265 279 277 265 249 254 256 253 259 260 257 250 239 247 252 241 240 230
120 78 353 343 91 285 15 12 54 32 43 139 199 180 111 193 217 311 92 221 183 259 267 301 290 271 195 239 350 239 205 229 235 224 173 140 143 140 130 114 102 35 22 52 58 57 50 47 40 36 36 26 36 39 40 38 43 51 48 44 53 48 32 11 352 326 309 264 264 265 281 280 275 254 255 255 259 264 255 256 247 239 246 262 250 242
62 138 287 346 135 267 5 110 188 189 345 27 88 86 308 103 156 133 198 177 126 239 67 290 48 243 200 218 200 241 216 207 178 170 190 176 162 151 142 144 150 166 162 97 75 64 61 50 43 36 29 26 19 22 22 28 38 44 36 46 42 47 40 33 29 17 13 346 322 313 312 303 278 277 270 264 261 259 249 255 253 251 251 246 245 237
154 105 159 274 302 90 173 199 211 165 149 81 112 182 100 35 228 103 22 127 183 172 185 207 316 275 255 213 200 227 217 185 179 166 176 179 180 157 152 154 166 171 146 114 90 77 63 54 39 31 25 23 19 22 24 30 41 48 45 45 36 42 32 31 21 21 12 355 354 345 329 310 310 295 285 286 271 268 268 267 260 257 255 271 251 237
89 172 159 144 72 221 240 260 211 172 191 171 165 186 172 128 137 159 246 36 96 124 220 136 248 273 271 179 207 218 227 201 217 175 163 180 175 162 171 185 163 130 133 127 105 93 85 69 59 55 54 59 59 40 33 21 30 32 36 35 35 42 39 26 17 14 3 359 349 358 336 324 304 285 290 280 282 266 270 267 260 260 268 252 262 235
139 125 106 167 207 183 229 338 262 257 24 190 162 222 168 168 97 113 196 234 62 345 100 159 330 269 244 201 215 234 221 230 221 196 176 175 181 179 187 198 216 220 171 27 52 76 94 89 81 93 77 62 56 46 36 27 26 19 17 25 28 39 28 26 13 5 3 3 2 347 302 274 277 276 274 273 269 269 270 271 270 262 261 266 270 259
96 97 82 347 328 312 327 319 52 196 141 333 279 103 148 199 187 178 165 174 151 147 102 1 251 255 289 241 240 248 242 250 250 200 189 176 187 195 197 170 84 77 24 13 56 81 71 71 70 53 41 37 35 34 33 27 20 11 10 7 16 36 23 18 10 359 11 14 6 346 348 1 349 357 356 353 337 321 314 301 299 289 272 276 278 273
158 235 127 132 34 350 343 348 347 348 34 212 197 194 200 73 78 131 102 65 102 213 168 132 229 272 272 310 297 216 215 198 227 220 208 175 189 204 192 201 328 354 28 40 47 47 47 43 43 41 41 39 28 29 30 25 16 355 330 327 30 35 30 22 4 6 5 10 8 10 13 9 7 5 1 355 346 337 328 321 311 304 289 290 283 276
160 171 141 153 169 167 193 193 216 216 209 187 223 177 184 163 141 135 186 163 192 275 148 162 240 253 280 324 346 347 86 84 212 212 227 233 185 186 196 195 94 48 55 47 47 47 47 39 32 32 23 20 20 19 17 15 360 330 298 5 26 31 26 20 8 10 9 11 15 10 12 7 4 4 354 346 341 335 329 324 318 311 301 279 284 287
170 155 190 185 191 202 202 203 194 79 68 170 215 173 187 184 173 124 104 108 211 193 175 231 223 212 228 258 278 235 157 167 179 195 198 190 226 230 241 216 123 91 81 63 66 78 67 50 35 18 8 2 1 6 8 349 330 307 317 11 20 28 33 20 13 8 15 12 16 11 8 2 358 351 346 343 335 328 327 325 320 316 308 302 285 289
88 178 215 200 218 219 210 162 195 160 175 201 165 188 181 165 171 163 172 212 165 91 254 233 224 214 233 243 244 230 221 217 194 193 191 199 206 195 193 135 84 81 68 72 84 92 99 88 51 34 1 359 345 336 303 285 279 286 333 19 15 19 27 19 15 12 14 15 12 12 358 352 343 343 337 332 330 328 326 324 322 317 308 309 302 292
146 195 220 179 232 224 121 170 167 158 185 178 182 166 164 173 165 180 211 217 123 196 226 234 178 217 230 191 211 209 190 191 196 198 196 168 157 146 123 130 146 154 135 119 134 133 133 135 144 138 199 227 227 225 236 242 253 259 283 45 33 30 29 8 10 8 10 8 14 356 338 331 337 332 331 331 330 333 331 328 321 316 315 309 298 287
131 228 190 177 216 222 224 154 195 161 161 132 175 179 176 164 186 195 213 215 183 216 225 231 153 221 210 195 203 211 207 197 193 86 101 163 192 159 144 159 163 156 153 151 154 160 155 155 160 169 167 91 252 321 316 291 275 286 18 30 28 35 25 26 5 7 0 8 349 328 322 322 322 326 322 328 332 326 322 319 318 316 313 307 294 289
157 246 144 149 193 244 219 155 145 184 152 187 209 184 176 182 192 200 210 221 214 237 246 181 202 264 244 194 215 230 208 105 69 165 200 190 159 169 170 170 162 158 166 161 158 159 150 140 94 61 43 293 282 246 223 221 233 22 35 26 18 14 356 8 360 4 1 351 327 314 310 321 318 315 322 313 309 312 316 316 315 313 309 306 305 299
158 240 45 109 185 265 277 177 178 84 61 120 163 175 191 189 200 213 211 214 193 211 231 244 268 258 237 164 217 219 187 181 198 202 202 205 209 182 174 173 166 165 164 164 159 150 145 142 153 178 192 195 199 198 185 16 22 33 29 9 6 349 337 347 347 351 349 331 321 323 328 320 315 314 310 304 303 300 291 286 290 294 292 296 300 300
175 141 150 159 179 226 339 137 120 106 64 301 242 208 199 200 203 209 222 207 197 196 206 201 230 240 174 176 193 209 187 208 209 197 212 222 205 185 181 174 171 167 165 161 163 164 164 163 170 174 170 104 31 23 24 33 32 27 7 4 334 323 336 341 339 337 347 339 332 335 328 325 330 329 330 333 324 314 311 306 305 308 311 306 291 283
129 146 172 176 173 238 325 118 118 93 212 226 222 208 181 194 202 195 204 217 221 177 207 207 225 238 144 188 182 198 205 210 206 211 199 191 182 191 187 174 167 165 160 162 159 150 155 162 152 73 59 49 25 26 8 24 27 359 340 325 324 349 351 358 355 1 354 350 355 350 345 347 345 345 340 335 336 335 333 337 335 323 309 306 307 306
167 161 170 174 146 158 242 115 97 210 235 229 334 141 192 205 183 196 215 214 215 211 229 248 262 220 190 187 194 197 204 211 10 194 205 283 181 172 169 169 165 160 158 154 147 151 146 144 119 78 48 30 20 10 14 15 15 357 356 353 2 1 353 358 347 1 357 352 350 350 352 351 346 342 339 338 338 338 338 338 331 332 332 329 325 323
162 159 144 70 116 62 91 165 205 232 231 316 270 253 195 158 177 190 256 256 248 216 214 234 236 235 194 208 225 255 195 143 87 57 45 332 191 163 152 162 158 150 144 154 143 155 147 131 102 72 52 11 27 11 20 9 351 5 349 335 359 349 352 345 353 355 354 352 353 351 347 346 341 337 337 336 337 338 336 334 331 325 325 322 315 302
161 125 159 188 188 179 178 195 223 352 339 262 240 213 168 165 157 176 218 243 227 207 195 217 232 234 177 206 164 116 127 102 109 276 21 108 118 138 147 142 148 152 146 157 144 137 141 128 99 85 91 42 30 35 19 350 350 345 335 359 356 354 348 357 4 1 352 347 344 344 343 343 338 335 333 333 332 332 330 328 324 320 316 314 311 307
169 176 194 180 222 146 128 178 351 234 245 238 225 290 155 163 176 185 183 262 237 205 200 210 226 227 193 143 148 155 147 128 204 241 199 194 131 118 101 117 128 135 138 149 141 119 99 106 97 110 115 96 83 65 23 347 346 328 344 2 353 357 353 7 4 351 345 341 339 336 337 335 336 332 330 330 331 325 320 316 307 308 322 318 317 316
17 67 129 191 174 147 191 214 213 213 234 236 214 178 188 170 143 109 144 247 247 196 192 199 219 224 187 166 167 150 137 191 222 207 177 162 156 139 126 135 129 136 130 112 106 81 73 62 111 129 105 68 40 13 9 3 4 7 5 6 359 356 359 1 355 352 344 334 328 327 329 330 331 329 325 323 318 318 314 314 311 307 309 303 301 297
158 172 119 172 199 195 191 209 228 212 249 253 207 227 200 136 119 104 189 245 243 136 187 193 204 215 191 179 161 173 175 214 227 208 161 154 150 150 138 135 124 109 88 89 64 66 86 59 54 34 32 31 19 0 7 3 7 11 4 357 355 358 357 349 346 334 328 322 320 318 319 320 319 313 313 312 310 310 304 304 307 307 309 305 302 301
174 182 195 198 195 206 206 235 286 281 271 212 189 187 158 161 132 168 224 242 200 193 221 182 197 208 183 169 166 186 216 222 164 128 133 133 111 96 80 88 105 102 93 70 52 39 53 46 58 49 33 23 14 10 10 11 12 2 357 350 353 347 341 337 332 330 323 320 317 318 317 315 311 312 310 306 305 306 303 303 303 307 309 306 305 301
187 175 204 200 208 204 205 215 225 258 235 162 316 155 169 120 207 217 224 141 154 188 250 194 174 113 146 165 184 174 104 120 107 107 120 127 123 120 114 106 96 77 76 90 69 51 45 44 35 31 31 27 20 14 14 14 10 353 350 347 340 329 332 332 327 322 319 316 315 312 312 312 311 306 303 307 312 312 307 305 298 293 296 297 297 298
178 176 181 190 193 226 198 221 220 234 239 125 122 85 284 180 236 187 151 311 171 180 140 83 137 169 138 129 118 131 128 121 126 126 125 126 124 126 121 109 95 90 65 48 37 33 49 41 27 21 24 15 19 15 11 23 9 350 344 338 321 332 334 328 324 320 314 309 305 306 305 305 304 307 311 309 309 305 300 302 305 299 296 297 301 299
179 191 170 204 177 200 193 201 202 190 118 176 144 179 198 208 191 158 139 100 226 149 148 124 114 163 160 138 142 134 134 123 112 127 117 115 116 110 100 97 94 84 77 67 69 43 41 36 23 12 16 11 11 16 19 20 9 345 337 321 327 335 325 324 319 313 306 301 299 300 302 302 303 301 302 301 305 303 299 304 307 305 299 302 298 298
215 203 175 193 176 188 209 187 193 199 172 199 158 312 212 146 117 166 132 139 152 217 176 134 151 146 143 133 133 137 131 142 139 145 135 140 130 125 115 104 93 87 74 68 55 43 43 30 10 2 3 7 6 17 19 13 7 340 329 322 339 324 326 322 319 313 308 307 307 309 310 310 306 306 305 303 305 305 305 304 306 304 302 303 294 287
322 209 188 112 240 132 287 213 272 92 201 242 266 161 286 156 130 147 147 131 229 168 174 162 153 143 143 143 132 151 144 149 139 136 129 130 122 112 105 96 82 73 70 61 50 40 33 19 19 12 3 355 4 23 13 11 3 347 323 329 324 322 320 319 318 318 317 319 317 317 318 314 309 307 303 302 301 292 286 288 295 294 294 292 285 283
246 157 164 183 227 164 244 193 186 199 213 211 212 51 332 288 221 176 177 184 161 154 139 147 151 154 154 157 145 143 141 142 130 129 126 122 117 115 107 97 82 79 70 66 43 50 19 23 16 11 4 353 346 10 360 2 351 335 327 328 324 323 320 318 319 317 319 320 318 314 316 310 307 308 307 303 300 294 290 288 284 284 283 280 280 279
268 175 165 210 168 191 232 213 229 327 258 254 204 209 222 212 241 277 207 142 134 119 118 133 128 124 134 135 143 137 143 145 138 138 132 129 128 121 110 102 98 79 69 72 49 59 44 46 56 20 7 348 343 5 351 345 339 330 325 319 320 318 321 322 324 322 321 319 313 309 310 306 300 299 297 297 296 292 291 285 277 276 276 282 281 283
193 126 207 184 196 323 10 330 268 12 342 259 219 237 215 182 160 128 114 119 128 121 115 85 75 132 141 141 138 133 129 140 141 141 135 131 122 117 112 106 96 93 82 54 40 45 53 47 37 22 8 342 353 358 336 323 319 314 318 320 322 327 332 330 326 322 317 315 313 309 310 303 301 299 297 295 292 281 273 281 286 282 278 266 265 263
94 196 208 132 112 193 207 208 149 142 245 249 232 212 180 157 144 134 130 130 139 133 133 119 88 64 96 119 142 138 136 138 138 134 131 130 129 120 114 103 97 89 72 37 64 52 59 28 47 19 354 329 343 333 312 315 313 319 325 328 336 346 344 334 326 320 319 320 315 312 310 306 299 295 291 288 289 293 289 272 270 271 274 283 280 270
192 193 147 183 185 219 229 205 186 204 218 227 210 171 152 166 156 153 165 159 158 146 145 133 124 107 101 70 58 131 135 139 138 122 118 120 113 104 104 112 125 134 135 101 98 62 49 32 32 47 278 305 325 319 324 324 322 330 336 346 348 345 336 329 322 313 310 313 311 309 305 300 297 293 290 288 292 293 294 298 292 278 273 269 275 281